When you browse on this site, cookies collect data to enhance your experience and personalize the content and advertising you see.
Visit our Privacy Policy to learn more. By continuing to use the site, you agree to this use of cookies and data.
  • In United Kingdom
  • List of Countries
  • For 7 days
  • Water Temperature
  • Weather Map
  • Weather Widgets
  • user-avatar
    Login

    Hourly Weather Yubileynyy

    Today, 19 August, Monday

    Time Temperature Precipitation Wind Pressure Humidity
    00:00 +19°C° 0 mm 3 mps 748 mmHg 72%
    01:00 +19°C° 0.2 mm 2 mps 748 mmHg 77%
    02:00 +18°C° 0.2 mm 2 mps 748 mmHg 83%
    03:00 +18°C° 0.2 mm 2 mps 748 mmHg 88%
    04:00 +18°C° 0.3 mm 2 mps 748 mmHg 88%
    05:00 +18°C° 0.3 mm 2 mps 748 mmHg 88%
    06:00 +18°C° 0.3 mm 2 mps 748 mmHg 89%
    07:00 +18°C° 1 mm 2 mps 748 mmHg 90%
    08:00 +18°C° 1 mm 2 mps 748 mmHg 92%
    09:00 +18°C° 1 mm 2 mps 749 mmHg 93%
    10:00 +19°C° 0.1 mm 2 mps 749 mmHg 91%
    11:00 +19°C° 0.1 mm 3 mps 749 mmHg 88%
    12:00 +20°C° 0.1 mm 3 mps 748 mmHg 86%
    13:00 +20°C° 0.1 mm 3 mps 749 mmHg 85%
    14:00 +21°C° 0.1 mm 3 mps 749 mmHg 83%
    15:00 +21°C° 0.1 mm 2 mps 749 mmHg 82%
    16:00 +21°C° 0.2 mm 2 mps 748 mmHg 83%
    17:00 +21°C° 0.2 mm 2 mps 748 mmHg 84%
    18:00 +22°C° 0.2 mm 1 mps 748 mmHg 85%
    19:00 +20°C° 0.1 mm 2 mps 748 mmHg 88%
    20:00 +19°C° 0.1 mm 2 mps 748 mmHg 92%
    21:00 +18°C° 0.1 mm 2 mps 748 mmHg 95%
    22:00 +18°C° 0 mm 2 mps 748 mmHg 96%
    23:00 +17°C° 0 mm 2 mps 748 mmHg 96%

    Tomorrow, 20 August, Tuesday

    Time Temperature Precipitation Wind Pressure Humidity
    00:00 +17°C° 0 mm 2 mps 748 mmHg 96%
    01:00 +16°C° 0 mm 2 mps 749 mmHg 96%
    02:00 +16°C° 0 mm 2 mps 749 mmHg 96%
    03:00 +15°C° 0 mm 2 mps 749 mmHg 96%
    04:00 +15°C° 0 mm 2 mps 749 mmHg 96%
    05:00 +15°C° 0 mm 2 mps 750 mmHg 96%
    06:00 +16°C° 0 mm 2 mps 750 mmHg 96%
    07:00 +17°C° 0 mm 2 mps 750 mmHg 92%
    08:00 +19°C° 0 mm 3 mps 750 mmHg 89%
    09:00 +20°C° 0 mm 3 mps 750 mmHg 85%
    10:00 +21°C° 0 mm 3 mps 750 mmHg 79%
    11:00 +22°C° 0 mm 4 mps 750 mmHg 74%
    12:00 +25°C° 0 mm 4 mps 750 mmHg 69%
    13:00 +25°C° 0 mm 4 mps 751 mmHg 68%
    14:00 +25°C° 0 mm 4 mps 751 mmHg 67%
    15:00 +25°C° 0 mm 4 mps 751 mmHg 67%
    16:00 +24°C° 0 mm 3 mps 751 mmHg 71%
    17:00 +24°C° 0 mm 3 mps 751 mmHg 76%
    18:00 +23°C° 0 mm 2 mps 751 mmHg 80%
    19:00 +21°C° 0 mm 2 mps 751 mmHg 84%
    20:00 +19°C° 0 mm 2 mps 751 mmHg 88%
    21:00 +19°C° 0 mm 1 mps 751 mmHg 92%
    22:00 +18°C° 0 mm 1 mps 751 mmHg 93%
    23:00 +18°C° 0 mm 1 mps 751 mmHg 94%

    Day after tomorrow, 21 August, Wednesday

    Time Temperature Precipitation Wind Pressure Humidity
    00:00 +18°C° 0 mm 1 mps 751 mmHg 94%
    01:00 +16°C° 0 mm 1 mps 752 mmHg 95%
    02:00 +16°C° 0 mm 1 mps 752 mmHg 95%
    03:00 +16°C° 0 mm 1 mps 752 mmHg 95%
    04:00 +18°C° 0 mm 1 mps 752 mmHg 94%
    05:00 +18°C° 0 mm 1 mps 752 mmHg 93%
    06:00 +18°C° 0 mm 1 mps 752 mmHg 92%
    07:00 +20°C° 0 mm 1 mps 752 mmHg 87%
    08:00 +22°C° 0 mm 1 mps 752 mmHg 81%
    09:00 +23°C° 0 mm 1 mps 753 mmHg 75%
    10:00 +24°C° 0 mm 2 mps 753 mmHg 71%
    11:00 +25°C° 0 mm 2 mps 753 mmHg 67%
    12:00 +26°C° 0 mm 2 mps 752 mmHg 63%
    13:00 +27°C° 0 mm 2 mps 752 mmHg 63%
    14:00 +27°C° 0 mm 2 mps 752 mmHg 63%
    15:00 +27°C° 0 mm 2 mps 752 mmHg 63%
    16:00 +26°C° 0.1 mm 2 mps 752 mmHg 69%
    17:00 +25°C° 0.1 mm 1 mps 752 mmHg 75%
    18:00 +24°C° 0.1 mm 1 mps 752 mmHg 81%
    19:00 +23°C° 0 mm 1 mps 752 mmHg 85%
    20:00 +22°C° 0 mm 1 mps 752 mmHg 88%
    21:00 +21°C° 0 mm 1 mps 752 mmHg 92%
    22:00 +20°C° 0 mm 1 mps 752 mmHg 93%
    23:00 +20°C° 0 mm 1 mps 752 mmHg 93%

    22 August, Thursday

    Time Temperature Precipitation Wind Pressure Humidity
    00:00 +20°C° 0 mm 1 mps 752 mmHg 94%
    01:00 +19°C° 0 mm 1 mps 752 mmHg 94%
    02:00 +19°C° 0 mm 1 mps 752 mmHg 95%
    03:00 +19°C° 0 mm 1 mps 752 mmHg 95%
    04:00 +19°C° 0 mm 1 mps 752 mmHg 94%
    05:00 +19°C° 0 mm 1 mps 752 mmHg 93%
    06:00 +20°C° 0 mm 1 mps 752 mmHg 92%
    07:00 +19°C° 0 mm 0 mps 752 mmHg 87%
    08:00 +21°C° 0 mm 0 mps 752 mmHg 81%
    09:00 +22°C° 0 mm 0 mps 752 mmHg 75%
    10:00 +23°C° 0 mm 0 mps 752 mmHg 70%
    11:00 +26°C° 0 mm 1 mps 752 mmHg 64%
    12:00 +28°C° 0 mm 1 mps 751 mmHg 59%
    13:00 +28°C° 0 mm 1 mps 751 mmHg 58%
    14:00 +28°C° 0 mm 1 mps 751 mmHg 58%
    15:00 +28°C° 0 mm 1 mps 751 mmHg 58%
    16:00 +27°C° 0.2 mm 1 mps 750 mmHg 65%
    17:00 +26°C° 0.2 mm 2 mps 750 mmHg 72%
    18:00 +25°C° 0.2 mm 2 mps 750 mmHg 79%
    19:00 +24°C° 1.4 mm 2 mps 750 mmHg 84%
    20:00 +21°C° 1.4 mm 2 mps 749 mmHg 89%
    21:00 +20°C° 1.4 mm 2 mps 749 mmHg 93%
    22:00 +20°C° 0 mm 2 mps 749 mmHg 94%
    23:00 +19°C° 0 mm 2 mps 749 mmHg 95%

    23 August, Friday

    Time Temperature Precipitation Wind Pressure Humidity
    00:00 +19°C° 0 mm 2 mps 749 mmHg 95%
    01:00 +19°C° 0 mm 2 mps 749 mmHg 96%
    02:00 +18°C° 0 mm 2 mps 749 mmHg 97%
    03:00 +18°C° 0 mm 2 mps 749 mmHg 97%
    04:00 +18°C° 0 mm 2 mps 749 mmHg 97%
    05:00 +18°C° 0 mm 2 mps 749 mmHg 97%
    06:00 +18°C° 0 mm 2 mps 749 mmHg 96%
    07:00 +18°C° 0 mm 3 mps 749 mmHg 95%
    08:00 +18°C° 0 mm 3 mps 749 mmHg 93%
    09:00 +19°C° 0 mm 3 mps 750 mmHg 92%
    10:00 +19°C° 0 mm 3 mps 750 mmHg 90%
    11:00 +19°C° 0 mm 3 mps 750 mmHg 88%
    12:00 +19°C° 0 mm 3 mps 750 mmHg 85%
    13:00 +20°C° 0 mm 3 mps 750 mmHg 83%
    14:00 +20°C° 0 mm 3 mps 750 mmHg 80%
    15:00 +21°C° 0 mm 3 mps 750 mmHg 77%
    16:00 +20°C° 0 mm 2 mps 750 mmHg 78%
    17:00 +20°C° 0 mm 2 mps 750 mmHg 79%
    18:00 +21°C° 0 mm 1 mps 750 mmHg 81%
    19:00 +19°C° 0 mm 1 mps 750 mmHg 83%
    20:00 +18°C° 0 mm 1 mps 749 mmHg 85%
    21:00 +16°C° 0 mm 1 mps 749 mmHg 87%
    22:00 +16°C° 0 mm 1 mps 749 mmHg 85%
    23:00 +16°C° 0 mm 1 mps 749 mmHg 84%

    24 August, Saturday

    Time Temperature Precipitation Wind Pressure Humidity
    00:00 +16°C° 0 mm 1 mps 749 mmHg 82%
    01:00 +16°C° 0 mm 2 mps 749 mmHg 83%
    02:00 +16°C° 0 mm 2 mps 749 mmHg 83%
    03:00 +16°C° 0 mm 2 mps 748 mmHg 83%
    04:00 +16°C° 0 mm 2 mps 748 mmHg 84%
    05:00 +16°C° 0 mm 2 mps 748 mmHg 85%
    06:00 +16°C° 0 mm 2 mps 748 mmHg 86%
    07:00 +16°C° 0.4 mm 2 mps 748 mmHg 86%
    08:00 +16°C° 0.4 mm 3 mps 748 mmHg 87%
    09:00 +17°C° 0.4 mm 3 mps 747 mmHg 87%
    10:00 +17°C° 0.9 mm 3 mps 747 mmHg 87%
    11:00 +17°C° 0.9 mm 3 mps 747 mmHg 87%
    12:00 +17°C° 0.9 mm 3 mps 747 mmHg 86%
    13:00 +17°C° 0.9 mm 3 mps 747 mmHg 86%
    14:00 +17°C° 0.9 mm 3 mps 747 mmHg 86%
    15:00 +17°C° 0.9 mm 2 mps 747 mmHg 86%
    16:00 +17°C° 0.4 mm 3 mps 747 mmHg 87%
    17:00 +16°C° 0.4 mm 3 mps 747 mmHg 87%
    18:00 +16°C° 0.4 mm 3 mps 747 mmHg 87%
    19:00 +14°C° 0.1 mm 3 mps 747 mmHg 88%
    20:00 +14°C° 0.1 mm 4 mps 747 mmHg 88%
    21:00 +13°C° 0.1 mm 4 mps 747 mmHg 89%
    22:00 +13°C° 0 mm 5 mps 747 mmHg 87%
    23:00 +13°C° 0 mm 5 mps 748 mmHg 86%
    Show more